Location: Waco, TX
(31.5480°N, 97.1670°W)
Time: 15:06:25
(UTC-05:00)

ISS - Pass Details

Date: 21 August 2019
Orbit: 410 x 421 km, 51.6° (Epoch: 22 August)

Event Time Altitude Azimuth Distance (km) Brightness Sun altitude
Rises 08:45:16 0° 254° (WSW) 2,339 -0.5 21.8°
Reaches altitude 10° 08:47:41 10° 270° (W) 1,482 -1.5 22.3°
Maximum altitude 08:50:19 21° 323° (NW) 979 -2.1 22.9°
Drops below altitude 10° 08:52:58 10° 16° (NNE) 1,492 -0.7 23.5°
Sets 08:55:24 0° 32° (NNE) 2,360 0.5 24.0°
